weather.gov     
National Weather Service

Regional Weather Roundup
NWS Homepage
This page is being discontinued on March 12, 2014.
The same data is available at this site. Please update your bookmarks.
Thank you, and we apologize for the inconvenience.
Please send an email to SR-SRH.Webmaster@noaa.gov with any concerns.


Current Version
Previous Version:    01  02  03  04  05  06  07  08  09  10  11  12  13  14  15  16  17  18  19  20  21  22  23  24  25  26  27  28  29  30  
[Printable]
583
ASUS42 KTBW 220210
RWRFL
FLORIDA REGIONAL WEATHER ROUNDUP
NATIONAL WEATHER SERVICE TAMPA BAY RUSKIN FL
1000 PM EDT SUN SEP 21 2014

NOTE: "FAIR" INDICATES FEW OR NO CLOUDS BELOW 12,000 FEET WITH NO
SIGNIFICANT WEATHER AND/OR OBSTRUCTIONS TO VISIBILITY.


FLZ001>010-012>015-112-114-115-220300-
PANHANDLE FLORIDA

CITY           SKY/WX    TMP DP  RH WIND       PRES   REMARKS
PENSACOLA      CLEAR     73  68  84 CALM      30.01R
PENSACOLA NAS  CLEAR     73  67  81 CALM      30.01R
MILTON NAS     CLEAR     74  66  76 SW3       30.02R
CRESTVIEW      CLEAR     72  68  87 CALM      30.04R
DUKE FIELD     FAIR      74  72  93 S3        30.02R
VALPARAISO     CLEAR     78  68  72 NW2       30.02R
MARY ESTHER    CLEAR     79  63  57 N2        30.01R
TRI COUNTY     FAIR      69  69 100 MISG      30.03R
PANAMA CITY    FAIR      74  69  85 CALM      30.01R
TYNDALL AFB    CLEAR     74  70  88 CALM      30.02R
APALACHICOLA   CLEAR     72  67  84 CALM      30.02R

STATION/POSITION SKY/WX   TEMP    WIND        PRES    WAVE   SWELL
                          AIR SEA DIR/SP/G            HT/PER HT/PER
                          (F)     (DEG/KT/KT) (MB)    (FT/S) (FT/S)
30.1N   87.6W              82 85  140/  8/ 10 1016.1R   2/ 5   2/ 5
29.2N   88.2W              82 84   80/ 14/ 16 1016.1R   3/ 6
28.8N   86.0W              81 84   80/ 10/ 14 1015.4R   2/ 5   2/ 6
PANAMA CITY BEAC           81 85  180/  5/  6 1016.5R
CAPE SAN BLAS    NOT AVBL
TOWER C                    79     160/  7/  8 1016.4R
28.5N   84.5W              81 84  110/  2/  4 1015.9R   2/ 4   2/ 6

$$
FLZ011-016>038-118-127-128-134-139-239-220300-
NORTH FLORIDA

CITY           SKY/WX    TMP DP  RH WIND       PRES   REMARKS
MARIANNA       CLEAR     72  68  87 CALM      30.01R
TALLAHASSEE    CLEAR     70  66  87 CALM      30.03R
PERRY          CLEAR     70  70 100 CALM      30.03R
CROSS CITY       N/A     73  69  87 CALM      30.01R
LAKE CITY      FAIR      68  66  94 CALM      30.02S
GAINESVILLE    CLEAR     72  65  78 CALM      30.02R
MAYPORT NAS    PTCLDY    73  64  73 S5        30.02R
JACKSONVILLE   PTCLDY    72  65  78 CALM      30.02R
JAX NAS        PTCLDY    81  64  56 S8        30.02R
JAX CRAIG      CLEAR     73  65  75 CALM      30.02R
JAX CECIL      CLEAR     68  64  88 CALM      30.02R
ST AUGUSTINE   CLEAR     72  67  84 CALM      30.03S

STATION/POSITION SKY/WX   TEMP    WIND        PRES    WAVE   SWELL
                          AIR SEA DIR/SP/G            HT/PER HT/PER
                          (F)     (DEG/KT/KT) (MB)    (FT/S) (FT/S)
SHELL POINT                80     220/  3/  4   N/A
KEATON BEACH               75      CALM  /  1 1016.5R
CEDAR KEY                  78     340/  1/  2 1016.8R
FERNANDINA                 77 82  180/  5/  6 1015.9S
30.7N   81.3W                 84                N/A     2/10
MAYPORT                    76 83  210/  4/  5   N/A
31.4N   80.9W              82 83  210/ 14/ 16 1015.8R   2/ 3   2/10
ST AUGUSTINE               80     130/  5/  5 1017.3R

$$
FLZ040-043>046-052-053-057-058-063-144-220300-
INTERIOR CENTRAL FLORIDA

CITY           SKY/WX    TMP DP  RH WIND       PRES   REMARKS
OCALA          PTCLDY    79  64  61 CALM      30.03R
THE VILLAGES     N/A     79  72  78 CALM      29.93R
LEESBURG       PTCLDY    80  72  76 E7        30.04R
SANFORD        PTCLDY    77  71  82 E5        30.03R
ORLANDO EXEC   PTCLDY    78  73  84 E6        30.03R
ORLANDO INTL   MOCLDY    76  74  93 SE5       30.03R
KISSIMMEE      MOCLDY    79  75  89 E5        30.03R
WINTER HAVEN   MOCLDY    79  72  79 S5        30.04R
LAKELAND       CLOUDY    75  75 100 CALM      30.03R
BARTOW         MOCLDY    75  75 100 E6        30.04R
OKEECHOBEE       N/A     72  72 100 MISG        N/A

$$
FLZ041-047-054-059-064-141-147-220300-
EAST CENTRAL FLORIDA

CITY           SKY/WX    TMP DP  RH WIND       PRES   REMARKS
DAYTONA BEACH  PTCLDY    74  71  91 CALM      30.03R
DELAND         PTCLDY    73  70  88 CALM      30.04R
JFK SPACE CTR  MOCLDY    74  72  93 CALM      30.03R
CAPE CANAVERAL MOCLDY    73  70  92 CALM      30.02R
PATRICK AFB    MOCLDY    79  75  86 S5        30.03R
MELBOURNE      CLOUDY    77  74  90 CALM      30.03R
VERO BEACH     MOCLDY    73  70  90 SW3       30.03R
FT PIERCE      MOCLDY    74  71  91 S5        30.03R
STUART         MOCLDY    73  72  94 CALM      30.04S

STATION/POSITION SKY/WX   TEMP    WIND        PRES    WAVE   SWELL
                          AIR SEA DIR/SP/G            HT/PER HT/PER
                          (F)     (DEG/KT/KT) (MB)    (FT/S) (FT/S)
28.5N   80.2W              81 84   80/  4/  6 1016.7R
28.9N   78.5W              82 85   CALM  /  2 1017.0R   5/ 9   5/ 9
TRIDENT PIER               76 84   70/  1/  2 1016.4R
28.4N   80.5W                 83                N/A     2/11
27.6N   80.2W                 83                N/A     2/10   2/11

$$
FLZ050-056-061-142-242-148-248-149-249-151-251-155-255-
160-260-220300-
WEST CENTRAL FLORIDA

CITY           SKY/WX    TMP DP  RH WIND       PRES   REMARKS
CRYSTAL RIVER  MOCLDY    75  72  88 CALM      30.01R
INVERNESS      MOCLDY    75  64  69 CALM      30.02R
BROOKSVILLE    MOCLDY    76  74  93 CALM      30.02R
ZEPHYRHILLS    FAIR      77  72  83 SW3       30.03R
CLEARWATER     PTCLDY    79  73  82 CALM      30.01R
TAMPA INTL     MOCLDY    80  73  79 N3        30.02R
TAMPA EXEC     MOCLDY    79  73  83 CALM      30.03R
PLANT CITY     MOCLDY    81  75  83 SW3       30.04R
MACDILL AFB    MOCLDY    78  74  89 SW2       30.02R
ST PETERSBURG  MOCLDY    80  73  79 SW3       30.00R
SARASOTA       MOCLDY    82  71  69 SW3       30.01R
VENICE           N/A    N/A N/A N/A MISG        N/A

STATION/POSITION SKY/WX   TEMP    WIND        PRES    WAVE   SWELL
                          AIR SEA DIR/SP/G            HT/PER HT/PER
                          (F)     (DEG/KT/KT) (MB)    (FT/S) (FT/S)
CEDAR KEY                  78     340/  1/  2 1016.8R
28.5N   84.5W              81 84  110/  2/  4 1015.9R   2/ 4   2/ 6
27.3N   84.3W                 85                N/A     2/ 4
CLEARWATER BEACH NOT AVBL
MIDDLE TAMPA BAY           82     250/  5/  7 1016.5R
VENICE                     83 86  210/  3/  4 1016.5R

$$
FLZ066-069-070-075>078-162-262-165-265-220300-
SOUTHWEST FLORIDA AND KEYS

CITY           SKY/WX    TMP DP  RH WIND       PRES   REMARKS
PUNTA GORDA    CLOUDY    79  74  84 MISG      30.05R
FT MYERS       MOCLDY    76  73  91 SE5       30.03R
SOUTHWEST INTL MOCLDY    77  67  71 SE5       30.04R
NAPLES         PTCLDY    81  75  82 E6        30.03R
MARCO ISLAND   PTCLDY    79  75  89 CALM      30.04R
MARATHON       CLEAR     83  77  82 CALM      30.04R
KEY WEST NAS   CLOUDY    83  76  79 NE5       30.04R
KEY WEST INTL  CLOUDY    84  75  74 NE3       30.04R

STATION/POSITION SKY/WX   TEMP    WIND        PRES    WAVE   SWELL
                          AIR SEA DIR/SP/G            HT/PER HT/PER
                          (F)     (DEG/KT/KT) (MB)    (FT/S) (FT/S)
VENICE                     83 86  210/  3/  4 1016.5R
NAPLES                     81 90  110/  1/  1 1017.5R
DRY TORTUGAS               80      40/  7/  9 1016.7R
NW FL BAY                  84        CALM     1016.2R
SAND KEY                   84      80/  6/  7 1017.2R
SOMBRERO KEY               84      90/  6/  6 1017.9R
LONG KEY                   84 86  120/  4/  6 1018.0R
MOLASSES REEF              84 87   90/  4/  5 1017.4R

$$
FLZ067-068-071>074-168-172>174-220300-
SOUTHEAST FLORIDA

CITY           SKY/WX    TMP DP  RH WIND       PRES   REMARKS
W PALM BEACH   CLOUDY    76  75  97 S5        30.03R
FT LAUDER-EXEC CLOUDY    74  32  21 S5        30.05R
FT LAUDERDALE  CLOUDY    75  73  93 NW3       30.04R
POMPANO BEACH  LGT RAIN  76  72  87 CALM      30.05R
PEMBROKE PINES CLOUDY    73  69  87 W5        30.06R
OPA LOCKA      CLOUDY    75  71  87 CALM      30.04S
MIAMI          LGT RAIN  78  68  71 CALM      30.04F
WEST KENDALL   MOCLDY    80  74  81 E3        30.05R
HOMESTEAD      MOCLDY    79  75  90 NE3       30.05R

STATION/POSITION SKY/WX   TEMP    WIND        PRES    WAVE   SWELL
                          AIR SEA DIR/SP/G            HT/PER HT/PER
                          (F)     (DEG/KT/KT) (MB)    (FT/S) (FT/S)
PORT EVERGLADES            76     260/  4/  9 1017.1
VIRGINIA KEY               79 85   20/  3/  6   N/A
LAKE WORTH                 78 85  140/  7/  9 1016.7R
FOWEY ROCKS                81 85   20/ 12/ 14 1018.0R
SETTLEMENT POINT           82     250/  3/  4 1017.9R

$$





U.S. Dept. of Commerce
NOAA National Weather Service
1325 East West Highway
Silver Spring, MD 20910
E-mail: w-nws.webmaster@noaa.gov
Page last modified: May 16, 2007
NATIONAL WEATHER SERVICE: for Safety, for Work, for Fun - FOR LIFE